Location: Les Thiberg�res
(47.8554°N, 1.0978°W)
Time: 22:53:16
(UTC+00:00)

PSLV R/B - Pass Details

Date: 17 February 2020
Orbit: 505 x 578 km, 97.8° (Epoch: 05 April)

Event Time Altitude Azimuth Distance (km) Brightness Sun altitude
Rises 05:22:37 0° 13° (NNE) 2,624 7.5 -18.3°
Reaches altitude 10° 05:24:42 10° 14° (NNE) 1,737 6.5 -18.0°
Maximum altitude 05:28:26 86° 104° (ESE) 522 3.6 -17.4°
Drops below altitude 10° 05:32:12 10° 193° (SSW) 1,749 6.2 -16.7°
Sets 05:34:19 0° 194° (SSW) 2,643 7.2 -16.4°
